Hourly Weather Koźmin Wielkopolski

Today, 24 October, Saturday

Time Temperature Precipitation Wind Pressure Humidity
00:00 +13°C° 0.4 mm 4 mps 745 mmHg 87%
01:00 +13°C° 0.4 mm 4 mps 745 mmHg 89%
02:00 +13°C° 0.5 mm 3 mps 745 mmHg 88%
03:00 +14°C° 0.5 mm 2 mps 746 mmHg 88%
04:00 +14°C° 0.5 mm 2 mps 746 mmHg 88%
05:00 +13°C° 0 mm 2 mps 746 mmHg 89%
06:00 +12°C° 0 mm 2 mps 746 mmHg 91%
07:00 +12°C° 0 mm 2 mps 747 mmHg 93%
08:00 +12°C° 0 mm 3 mps 747 mmHg 89%
09:00 +13°C° 0 mm 4 mps 747 mmHg 86%
10:00 +14°C° 0 mm 4 mps 748 mmHg 83%
11:00 +14°C° 0 mm 4 mps 748 mmHg 80%
12:00 +15°C° 0 mm 4 mps 748 mmHg 78%
13:00 +15°C° 0 mm 4 mps 748 mmHg 75%
14:00 +15°C° 0 mm 4 mps 748 mmHg 75%
15:00 +16°C° 0 mm 3 mps 748 mmHg 76%
16:00 +14°C° 0 mm 3 mps 748 mmHg 76%
17:00 +14°C° 0 mm 2 mps 748 mmHg 79%
18:00 +14°C° 0 mm 2 mps 748 mmHg 81%
19:00 +13°C° 0 mm 2 mps 749 mmHg 84%
20:00 +12°C° 0 mm 2 mps 749 mmHg 86%
21:00 +12°C° 0 mm 2 mps 749 mmHg 87%
22:00 +12°C° 0 mm 2 mps 749 mmHg 89%
23:00 +10°C° 0 mm 2 mps 749 mmHg 89%

Tomorrow, 25 October, Sunday

Time Temperature Precipitation Wind Pressure Humidity
00:00 +10°C° 0 mm 2 mps 749 mmHg 90%
01:00 +10°C° 0 mm 2 mps 749 mmHg 90%
02:00 +10°C° 0 mm 2 mps 749 mmHg 90%
03:00 +9°C° 0 mm 2 mps 748 mmHg 90%
04:00 +9°C° 0 mm 2 mps 748 mmHg 90%
05:00 +9°C° 0 mm 2 mps 748 mmHg 90%
06:00 +9°C° 0 mm 2 mps 748 mmHg 90%
07:00 +9°C° 0 mm 3 mps 748 mmHg 91%
08:00 +11°C° 0 mm 3 mps 748 mmHg 86%
09:00 +12°C° 0 mm 4 mps 748 mmHg 80%
10:00 +14°C° 0 mm 4 mps 748 mmHg 75%
11:00 +15°C° 0 mm 4 mps 748 mmHg 70%
12:00 +17°C° 0 mm 4 mps 747 mmHg 66%
13:00 +18°C° 0 mm 4 mps 747 mmHg 62%
14:00 +17°C° 0 mm 4 mps 747 mmHg 66%
15:00 +16°C° 0 mm 3 mps 746 mmHg 70%
16:00 +14°C° 0 mm 3 mps 746 mmHg 75%
17:00 +14°C° 0 mm 3 mps 746 mmHg 78%
18:00 +13°C° 0 mm 3 mps 746 mmHg 82%
19:00 +12°C° 0 mm 4 mps 746 mmHg 85%
20:00 +12°C° 0 mm 4 mps 746 mmHg 85%
21:00 +11°C° 0 mm 4 mps 745 mmHg 85%
22:00 +11°C° 0 mm 4 mps 745 mmHg 85%
23:00 +10°C° 0 mm 4 mps 745 mmHg 87%

Day after tomorrow, 26 October, Monday

Time Temperature Precipitation Wind Pressure Humidity
00:00 +10°C° 0 mm 3 mps 744 mmHg 89%
01:00 +9°C° 0 mm 3 mps 744 mmHg 91%
02:00 +9°C° 0 mm 3 mps 744 mmHg 92%
03:00 +9°C° 0 mm 3 mps 743 mmHg 92%
04:00 +9°C° 0 mm 3 mps 743 mmHg 93%
05:00 +9°C° 0 mm 2 mps 743 mmHg 93%
06:00 +9°C° 0 mm 2 mps 743 mmHg 93%
07:00 +9°C° 0 mm 2 mps 743 mmHg 93%
08:00 +10°C° 0 mm 3 mps 742 mmHg 87%
09:00 +12°C° 0 mm 3 mps 742 mmHg 80%
10:00 +14°C° 0 mm 3 mps 742 mmHg 74%
11:00 +14°C° 0 mm 4 mps 742 mmHg 74%
12:00 +14°C° 0 mm 4 mps 742 mmHg 74%
13:00 +14°C° 0 mm 4 mps 742 mmHg 74%
14:00 +14°C° 0 mm 4 mps 742 mmHg 75%
15:00 +14°C° 0 mm 4 mps 741 mmHg 76%
16:00 +13°C° 0 mm 4 mps 741 mmHg 77%
17:00 +13°C° 0.1 mm 4 mps 742 mmHg 79%
18:00 +13°C° 0.1 mm 4 mps 742 mmHg 81%
19:00 +12°C° 0.1 mm 3 mps 742 mmHg 83%
20:00 +11°C° 0 mm 3 mps 743 mmHg 87%
21:00 +11°C° 0 mm 3 mps 743 mmHg 90%
22:00 +10°C° 0 mm 2 mps 743 mmHg 94%
23:00 +10°C° 0 mm 2 mps 743 mmHg 94%

, 27 October, Tuesday

Time Temperature Precipitation Wind Pressure Humidity
00:00 +10°C° 0 mm 1 mps 743 mmHg 95%
01:00 +10°C° 0 mm 1 mps 743 mmHg 95%
02:00 +10°C° 0 mm 1 mps 743 mmHg 95%
03:00 +10°C° 0 mm 1 mps 743 mmHg 94%
04:00 +10°C° 0 mm 1 mps 743 mmHg 94%
05:00 +10°C° 0.3 mm 1 mps 743 mmHg 94%
06:00 +11°C° 0.3 mm 1 mps 743 mmHg 95%
07:00 +10°C° 0.3 mm 2 mps 743 mmHg 95%
08:00 +10°C° 0.1 mm 2 mps 743 mmHg 93%
09:00 +12°C° 0.1 mm 2 mps 743 mmHg 91%
10:00 +12°C° 0.1 mm 1 mps 744 mmHg 90%
11:00 +13°C° 0 mm 2 mps 744 mmHg 88%
12:00 +13°C° 0 mm 2 mps 744 mmHg 86%
13:00 +14°C° 0 mm 2 mps 744 mmHg 84%
14:00 +13°C° 0 mm 2 mps 744 mmHg 86%
15:00 +13°C° 0 mm 2 mps 744 mmHg 88%
16:00 +12°C° 0 mm 2 mps 745 mmHg 90%
17:00 +12°C° 0 mm 2 mps 745 mmHg 91%
18:00 +10°C° 0 mm 2 mps 745 mmHg 92%
19:00 +10°C° 0 mm 2 mps 746 mmHg 94%
20:00 +10°C° 0 mm 2 mps 746 mmHg 94%
21:00 +10°C° 0 mm 2 mps 747 mmHg 94%
22:00 +10°C° 0 mm 2 mps 747 mmHg 93%
23:00 +9°C° 0 mm 2 mps 747 mmHg 94%

27 October, Tuesday

Time Temperature Precipitation Wind Pressure Humidity
00:00 +10°C° 0 mm 1 mps 743 mmHg 95%
01:00 +10°C° 0 mm 1 mps 743 mmHg 95%
02:00 +10°C° 0 mm 1 mps 743 mmHg 95%
03:00 +10°C° 0 mm 1 mps 743 mmHg 94%
04:00 +10°C° 0 mm 1 mps 743 mmHg 94%
05:00 +10°C° 0.3 mm 1 mps 743 mmHg 94%
06:00 +11°C° 0.3 mm 1 mps 743 mmHg 95%
07:00 +10°C° 0.3 mm 2 mps 743 mmHg 95%
08:00 +10°C° 0.1 mm 2 mps 743 mmHg 93%
09:00 +12°C° 0.1 mm 2 mps 743 mmHg 91%
10:00 +12°C° 0.1 mm 1 mps 744 mmHg 90%
11:00 +13°C° 0 mm 2 mps 744 mmHg 88%
12:00 +13°C° 0 mm 2 mps 744 mmHg 86%
13:00 +14°C° 0 mm 2 mps 744 mmHg 84%
14:00 +13°C° 0 mm 2 mps 744 mmHg 86%
15:00 +13°C° 0 mm 2 mps 744 mmHg 88%
16:00 +12°C° 0 mm 2 mps 745 mmHg 90%
17:00 +12°C° 0 mm 2 mps 745 mmHg 91%
18:00 +10°C° 0 mm 2 mps 745 mmHg 92%
19:00 +10°C° 0 mm 2 mps 746 mmHg 94%
20:00 +10°C° 0 mm 2 mps 746 mmHg 94%
21:00 +10°C° 0 mm 2 mps 747 mmHg 94%
22:00 +10°C° 0 mm 2 mps 747 mmHg 93%
23:00 +9°C° 0 mm 2 mps 747 mmHg 94%

28 October, Wednesday

Time Temperature Precipitation Wind Pressure Humidity
00:00 +9°C° 0 mm 2 mps 747 mmHg 94%
01:00 +9°C° 0 mm 1 mps 747 mmHg 94%
02:00 +9°C° 0 mm 1 mps 747 mmHg 93%
03:00 +9°C° 0 mm 1 mps 747 mmHg 92%
04:00 +10°C° 0 mm 1 mps 747 mmHg 91%
05:00 +10°C° 0 mm 1 mps 747 mmHg 91%
06:00 +10°C° 0 mm 1 mps 748 mmHg 91%
07:00 +9°C° 0 mm 0 mps 748 mmHg 90%
08:00 +11°C° 0 mm 1 mps 748 mmHg 88%
09:00 +11°C° 0 mm 1 mps 748 mmHg 85%
10:00 +12°C° 0 mm 1 mps 748 mmHg 82%
11:00 +13°C° 0 mm 2 mps 748 mmHg 79%
12:00 +14°C° 0 mm 2 mps 747 mmHg 76%
13:00 +15°C° 0 mm 2 mps 747 mmHg 73%
14:00 +14°C° 0 mm 2 mps 747 mmHg 76%
15:00 +14°C° 0 mm 2 mps 747 mmHg 79%
16:00 +13°C° 0 mm 1 mps 747 mmHg 82%
17:00 +13°C° 0 mm 1 mps 747 mmHg 84%
18:00 +12°C° 0 mm 2 mps 747 mmHg 87%
19:00 +12°C° 0 mm 2 mps 747 mmHg 89%
20:00 +10°C° 0 mm 2 mps 747 mmHg 89%
21:00 +10°C° 0 mm 2 mps 747 mmHg 89%
22:00 +9°C° 0 mm 2 mps 748 mmHg 89%
23:00 +9°C° 0 mm 2 mps 748 mmHg 88%

29 October, Thursday

Time Temperature Precipitation Wind Pressure Humidity
00:00 +9°C° 0 mm 3 mps 748 mmHg 87%
01:00 +8°C° 0 mm 3 mps 748 mmHg 86%
02:00 +8°C° 0 mm 3 mps 748 mmHg 86%
03:00 +8°C° 0 mm 3 mps 748 mmHg 86%
04:00 +8°C° 0 mm 3 mps 748 mmHg 85%
05:00 +8°C° 0 mm 3 mps 748 mmHg 85%
06:00 +7°C° 0 mm 3 mps 748 mmHg 85%
07:00 +7°C° 0 mm 3 mps 748 mmHg 85%
08:00 +8°C° 0 mm 4 mps 749 mmHg 80%
09:00 +9°C° 0 mm 5 mps 749 mmHg 74%
10:00 +11°C° 0 mm 6 mps 750 mmHg 68%
11:00 +11°C° 0 mm 6 mps 750 mmHg 66%
12:00 +13°C° 0 mm 6 mps 750 mmHg 64%
13:00 +13°C° 0 mm 6 mps 751 mmHg 62%
14:00 +13°C° 0 mm 5 mps 751 mmHg 65%
15:00 +12°C° 0 mm 5 mps 751 mmHg 67%
16:00 +11°C° 0 mm 4 mps 752 mmHg 70%
17:00 +11°C° 0 mm 4 mps 752 mmHg 73%
18:00 +10°C° 0 mm 3 mps 753 mmHg 76%
19:00 +9°C° 0 mm 3 mps 753 mmHg 79%
20:00 +9°C° 0 mm 3 mps 754 mmHg 81%
21:00 +9°C° 0 mm 3 mps 754 mmHg 82%
22:00 +8°C° 0 mm 3 mps 754 mmHg 83%
23:00 +8°C° 0 mm 3 mps 754 mmHg 84%
Show more